Time,TemperatureF,DewpointF,PressureIn,WindDirection,WindDirectionDegrees,WindSpeedMPH,WindSpeedGustMPH,Humidity,HourlyPrecipIn,Conditions,Clouds,dailyrainin,SoftwareType,DateUTC
2013-06-22 00:02:00,65.8,57.0,30.22,SE,126,0.0,0.0,74,0.00,,,0.00,weatherlink.com 1.10,2013-06-22 04:02:00,
2013-06-22 00:17:00,65.3,58.0,30.22,SE,126,0.0,0.0,76,0.00,,,0.00,weatherlink.com 1.10,2013-06-22 04:17:00,
2013-06-22 00:32:00,64.8,58.0,30.22,SE,126,0.0,0.0,78,0.00,,,0.00,weatherlink.com 1.10,2013-06-22 04:32:00,
2013-06-22 00:47:00,64.6,58.0,30.21,SE,126,0.0,0.0,79,0.00,,,0.00,weatherlink.com 1.10,2013-06-22 04:47:00,
2013-06-22 01:02:00,64.4,58.0,30.21,SE,126,0.0,0.0,79,0.00,,,0.00,weatherlink.com 1.10,2013-06-22 05:02:00,
2013-06-22 01:17:00,63.9,58.0,30.21,SE,126,0.0,0.0,81,0.00,,,0.00,weatherlink.com 1.10,2013-06-22 05:17:00,
2013-06-22 01:32:00,63.6,58.0,30.21,SE,126,0.0,0.0,82,0.00,,,0.00,weatherlink.com 1.10,2013-06-22 05:32:00,
2013-06-22 01:47:00,63.3,58.0,30.21,SE,126,0.0,0.0,82,0.00,,,0.00,weatherlink.com 1.10,2013-06-22 05:47:00,
2013-06-22 02:03:00,63.0,57.0,30.21,SE,126,0.0,0.0,82,0.00,,,0.00,weatherlink.com 1.10,2013-06-22 06:03:00,
2013-06-22 02:18:00,62.8,58.0,30.21,SSW,205,0.0,0.0,83,0.00,,,0.00,weatherlink.com 1.10,2013-06-22 06:18:00,
2013-06-22 02:33:00,63.2,58.0,30.21,SSW,205,0.0,0.0,83,0.00,,,0.00,weatherlink.com 1.10,2013-06-22 06:33:00,
2013-06-22 02:48:00,64.6,59.0,30.21,SW,229,0.0,0.0,82,0.00,,,0.00,weatherlink.com 1.10,2013-06-22 06:48:00,
2013-06-22 03:03:00,65.6,60.0,30.21,SW,229,0.0,0.0,82,0.00,,,0.00,weatherlink.com 1.10,2013-06-22 07:03:00,
2013-06-22 03:18:00,66.0,61.0,30.21,SW,229,0.0,0.0,83,0.00,,,0.00,weatherlink.com 1.10,2013-06-22 07:18:00,
2013-06-22 03:33:00,65.4,60.0,30.21,WNW,284,0.0,0.0,83,0.00,,,0.00,weatherlink.com 1.10,2013-06-22 07:33:00,
2013-06-22 03:48:00,65.3,61.0,30.21,WSW,240,0.0,0.0,86,0.00,,,0.00,weatherlink.com 1.10,2013-06-22 07:48:00,
2013-06-22 04:03:00,65.3,61.0,30.21,WSW,240,0.0,0.0,85,0.00,,,0.00,weatherlink.com 1.10,2013-06-22 08:03:00,
2013-06-22 04:18:00,65.6,62.0,30.21,SE,128,0.0,0.0,87,0.00,,,0.00,weatherlink.com 1.10,2013-06-22 08:18:00,
2013-06-22 04:33:00,65.8,62.0,30.21,NE,42,0.0,0.0,88,0.00,,,0.00,weatherlink.com 1.10,2013-06-22 08:33:00,
2013-06-22 04:48:00,65.7,63.0,30.21,South,181,0.0,0.0,90,0.00,,,0.00,weatherlink.com 1.10,2013-06-22 08:48:00,
2013-06-22 05:03:00,65.3,63.0,30.22,ESE,120,0.0,0.0,92,0.00,,,0.00,weatherlink.com 1.10,2013-06-22 09:03:00,
2013-06-22 05:18:00,65.0,63.0,30.22,East,98,0.0,0.0,93,0.00,,,0.00,weatherlink.com 1.10,2013-06-22 09:18:00,
2013-06-22 05:33:00,64.6,63.0,30.22,ESE,122,0.0,0.0,94,0.00,,,0.00,weatherlink.com 1.10,2013-06-22 09:33:00,
2013-06-22 05:48:00,64.5,63.0,30.23,SE,139,0.0,0.0,94,0.00,,,0.00,weatherlink.com 1.10,2013-06-22 09:48:00,
2013-06-22 06:03:00,63.9,62.0,30.23,SE,139,0.0,0.0,94,0.00,,,0.00,weatherlink.com 1.10,2013-06-22 10:03:00,
2013-06-22 06:18:00,63.5,62.0,30.23,SSE,150,0.0,0.0,94,0.00,,,0.00,weatherlink.com 1.10,2013-06-22 10:18:00,
2013-06-22 06:33:00,63.5,62.0,30.24,NNE,30,0.0,0.0,95,0.00,,,0.00,weatherlink.com 1.10,2013-06-22 10:33:00,
2013-06-22 06:48:00,63.1,61.0,30.23,NNE,30,0.0,0.0,94,0.00,,,0.00,weatherlink.com 1.10,2013-06-22 10:48:00,
2013-06-22 07:03:00,62.9,62.0,30.24,NNE,30,0.0,0.0,95,0.00,,,0.00,weatherlink.com 1.10,2013-06-22 11:03:00,
2013-06-22 07:18:00,63.0,62.0,30.23,NNE,30,0.0,0.0,96,0.00,,,0.00,weatherlink.com 1.10,2013-06-22 11:18:00,
2013-06-22 07:33:00,63.1,62.0,30.23,ENE,65,0.0,0.0,96,0.00,,,0.00,weatherlink.com 1.10,2013-06-22 11:33:00,
2013-06-22 07:48:00,63.2,62.0,30.24,ESE,111,0.0,0.0,95,0.00,,,0.00,weatherlink.com 1.10,2013-06-22 11:48:00,
2013-06-22 08:03:00,63.4,62.0,30.23,NW,305,0.0,0.0,95,0.00,,,0.00,weatherlink.com 1.10,2013-06-22 12:03:00,
2013-06-22 08:18:00,63.5,62.0,30.23,NW,310,0.0,0.0,95,0.00,,,0.00,weatherlink.com 1.10,2013-06-22 12:18:00,
2013-06-22 08:33:00,63.8,62.0,30.22,East,86,0.0,0.0,94,0.00,,,0.00,weatherlink.com 1.10,2013-06-22 12:33:00,
2013-06-22 08:48:00,64.4,62.0,30.22,SSE,152,0.0,0.0,93,0.00,,,0.00,weatherlink.com 1.10,2013-06-22 12:48:00,
2013-06-22 09:03:00,64.6,62.0,30.22,East,82,0.0,0.0,92,0.00,,,0.00,weatherlink.com 1.10,2013-06-22 13:03:00,
2013-06-22 09:18:00,65.7,63.0,30.22,WNW,295,0.0,0.0,92,0.00,,,0.00,weatherlink.com 1.10,2013-06-22 13:18:00,
2013-06-22 09:33:00,66.6,64.0,30.23,SW,221,0.0,0.0,90,0.00,,,0.00,weatherlink.com 1.10,2013-06-22 13:33:00,
2013-06-22 09:48:00,67.9,64.0,30.23,NE,52,0.0,0.0,87,0.00,,,0.00,weatherlink.com 1.10,2013-06-22 13:48:00,
2013-06-22 10:03:00,68.3,64.0,30.23,SE,134,0.0,0.0,86,0.00,,,0.00,weatherlink.com 1.10,2013-06-22 14:03:00,
2013-06-22 10:18:00,68.4,64.0,30.23,South,183,0.0,0.0,86,0.00,,,0.00,weatherlink.com 1.10,2013-06-22 14:18:00,
2013-06-22 10:33:00,68.5,65.0,30.23,SSW,206,0.0,0.0,87,0.00,,,0.00,weatherlink.com 1.10,2013-06-22 14:33:00,
2013-06-22 10:48:00,68.8,65.0,30.22,SE,140,0.0,0.0,88,0.00,,,0.00,weatherlink.com 1.10,2013-06-22 14:48:00,
2013-06-22 11:03:00,70.1,66.0,30.22,NE,55,0.0,0.0,86,0.00,,,0.00,weatherlink.com 1.10,2013-06-22 15:03:00,
2013-06-22 11:18:00,71.2,66.0,30.22,ENE,64,0.0,0.0,84,0.00,,,0.00,weatherlink.com 1.10,2013-06-22 15:18:00,
2013-06-22 11:33:00,71.9,67.0,30.22,ESE,118,0.0,0.0,84,0.00,,,0.00,weatherlink.com 1.10,2013-06-22 15:33:00,
2013-06-22 11:48:00,73.3,67.0,30.22,SE,141,0.0,0.0,81,0.00,,,0.00,weatherlink.com 1.10,2013-06-22 15:48:00,
2013-06-22 12:03:00,74.0,68.0,30.22,South,184,0.0,0.0,80,0.00,,,0.00,weatherlink.com 1.10,2013-06-22 16:03:00,
2013-06-22 12:18:00,74.9,68.0,30.21,NE,53,0.0,0.0,79,0.00,,,0.00,weatherlink.com 1.10,2013-06-22 16:18:00,
2013-06-22 12:33:00,75.1,68.0,30.21,NNW,347,0.0,0.0,78,0.00,,,0.00,weatherlink.com 1.10,2013-06-22 16:33:00,
2013-06-22 12:48:00,75.1,68.0,30.21,WSW,240,0.0,0.0,78,0.00,,,0.00,weatherlink.com 1.10,2013-06-22 16:48:00,
2013-06-22 13:03:00,75.3,68.0,30.21,South,188,0.0,0.0,77,0.00,,,0.00,weatherlink.com 1.10,2013-06-22 17:03:00,
2013-06-22 13:18:00,75.6,69.0,30.20,SSW,209,0.0,0.0,79,0.00,,,0.00,weatherlink.com 1.10,2013-06-22 17:18:00,
2013-06-22 13:33:00,76.4,68.0,30.21,South,171,0.0,0.0,76,0.00,,,0.00,weatherlink.com 1.10,2013-06-22 17:33:00,
2013-06-22 13:49:00,77.5,68.0,30.20,ENE,57,0.0,0.0,73,0.00,,,0.00,weatherlink.com 1.10,2013-06-22 17:49:00,
2013-06-22 14:04:00,78.3,69.0,30.19,SE,136,0.0,0.0,72,0.00,,,0.00,weatherlink.com 1.10,2013-06-22 18:04:00,
2013-06-22 14:19:00,79.0,68.0,30.19,ENE,69,0.0,0.0,69,0.00,,,0.00,weatherlink.com 1.10,2013-06-22 18:19:00,
2013-06-22 14:34:00,78.6,68.0,30.18,SSE,149,0.0,0.0,71,0.00,,,0.00,weatherlink.com 1.10,2013-06-22 18:34:00,
2013-06-22 14:49:00,78.2,68.0,30.18,South,187,0.0,0.0,71,0.00,,,0.00,weatherlink.com 1.10,2013-06-22 18:49:00,
2013-06-22 15:04:00,78.9,67.0,30.18,ENE,59,0.0,0.0,68,0.00,,,0.00,weatherlink.com 1.10,2013-06-22 19:04:00,
2013-06-22 15:19:00,79.1,68.0,30.17,ENE,70,0.0,0.0,68,0.00,,,0.00,weatherlink.com 1.10,2013-06-22 19:19:00,
2013-06-22 15:34:00,79.1,68.0,30.16,NNE,31,0.0,0.0,69,0.00,,,0.00,weatherlink.com 1.10,2013-06-22 19:34:00,
2013-06-22 15:49:00,79.9,68.0,30.15,SW,229,0.0,0.0,66,0.00,,,0.00,weatherlink.com 1.10,2013-06-22 19:49:00,
2013-06-22 16:04:00,80.3,68.0,30.15,ESE,121,0.0,0.0,67,0.00,,,0.00,weatherlink.com 1.10,2013-06-22 20:04:00,
2013-06-22 16:19:00,80.8,67.0,30.14,East,96,0.0,0.0,64,0.00,,,0.00,weatherlink.com 1.10,2013-06-22 20:19:00,
2013-06-22 16:34:00,80.7,67.0,30.14,ESE,107,0.0,0.0,64,0.00,,,0.00,weatherlink.com 1.10,2013-06-22 20:34:00,
2013-06-22 16:49:00,80.9,67.0,30.13,NNE,19,0.0,0.0,62,0.00,,,0.00,weatherlink.com 1.10,2013-06-22 20:49:00,
2013-06-22 17:04:00,80.8,67.0,30.13,ENE,65,0.0,0.0,64,0.00,,,0.00,weatherlink.com 1.10,2013-06-22 21:04:00,
2013-06-22 17:19:00,80.2,67.0,30.12,SE,140,0.0,0.0,64,0.00,,,0.00,weatherlink.com 1.10,2013-06-22 21:19:00,
2013-06-22 17:34:00,80.7,66.0,30.11,SSE,160,0.0,0.0,62,0.00,,,0.00,weatherlink.com 1.10,2013-06-22 21:34:00,
2013-06-22 17:49:00,80.8,68.0,30.11,SE,130,0.0,0.0,65,0.00,,,0.00,weatherlink.com 1.10,2013-06-22 21:49:00,
2013-06-22 18:04:00,81.0,69.0,30.11,SSW,199,0.0,0.0,66,0.00,,,0.00,weatherlink.com 1.10,2013-06-22 22:04:00,
2013-06-22 18:19:00,80.0,69.0,30.11,East,101,0.0,0.0,68,0.00,,,0.00,weatherlink.com 1.10,2013-06-22 22:19:00,
2013-06-22 18:34:00,78.9,68.0,30.11,SW,226,0.0,0.0,70,0.00,,,0.00,weatherlink.com 1.10,2013-06-22 22:34:00,
2013-06-22 18:49:00,78.7,69.0,30.11,East,99,0.0,0.0,71,0.00,,,0.00,weatherlink.com 1.10,2013-06-22 22:49:00,
2013-06-22 19:04:00,78.5,69.0,30.11,SSW,198,0.0,0.0,72,0.00,,,0.00,weatherlink.com 1.10,2013-06-22 23:04:00,
2013-06-22 19:19:00,77.8,69.0,30.12,East,80,0.0,0.0,75,0.00,,,0.00,weatherlink.com 1.10,2013-06-22 23:19:00,
2013-06-22 19:34:00,77.3,70.0,30.12,WSW,238,0.0,0.0,77,0.00,,,0.00,weatherlink.com 1.10,2013-06-22 23:34:00,
2013-06-22 19:49:00,76.8,69.0,30.13,ENE,67,0.0,0.0,78,0.00,,,0.00,weatherlink.com 1.10,2013-06-22 23:49:00,
2013-06-22 20:04:00,76.2,69.0,30.12,East,96,0.0,0.0,77,0.00,,,0.00,weatherlink.com 1.10,2013-06-23 00:04:00,
2013-06-22 20:19:00,75.7,68.0,30.13,SE,138,0.0,0.0,77,0.00,,,0.00,weatherlink.com 1.10,2013-06-23 00:19:00,
2013-06-22 20:34:00,75.2,68.0,30.12,SE,144,0.0,0.0,78,0.00,,,0.00,weatherlink.com 1.10,2013-06-23 00:34:00,
2013-06-22 20:49:00,74.6,68.0,30.12,SSW,196,0.0,0.0,79,0.00,,,0.00,weatherlink.com 1.10,2013-06-23 00:49:00,
2013-06-22 21:04:00,74.0,68.0,30.12,SSW,195,0.0,0.0,81,0.00,,,0.00,weatherlink.com 1.10,2013-06-23 01:04:00,
2013-06-22 21:19:00,73.4,68.0,30.12,SE,128,0.0,0.0,82,0.00,,,0.00,weatherlink.com 1.10,2013-06-23 01:19:00,
2013-06-22 21:34:00,72.9,68.0,30.13,SSE,147,0.0,0.0,83,0.00,,,0.00,weatherlink.com 1.10,2013-06-23 01:34:00,
2013-06-22 21:49:00,72.3,68.0,30.13,SSW,207,0.0,0.0,85,0.00,,,0.00,weatherlink.com 1.10,2013-06-23 01:49:00,
2013-06-22 22:04:00,71.5,68.0,30.14,SSW,207,0.0,0.0,87,0.00,,,0.00,weatherlink.com 1.10,2013-06-23 02:04:00,
2013-06-22 22:19:00,71.1,67.0,30.14,SSW,207,0.0,0.0,88,0.00,,,0.00,weatherlink.com 1.10,2013-06-23 02:19:00,
2013-06-22 22:34:00,70.7,67.0,30.15,SSW,207,0.0,0.0,89,0.00,,,0.00,weatherlink.com 1.10,2013-06-23 02:34:00,
2013-06-22 22:49:00,70.4,67.0,30.15,SSW,207,0.0,0.0,90,0.00,,,0.00,weatherlink.com 1.10,2013-06-23 02:49:00,
2013-06-22 23:04:00,70.3,67.0,30.15,SSW,207,0.0,0.0,90,0.00,,,0.00,weatherlink.com 1.10,2013-06-23 03:04:00,
2013-06-22 23:19:00,70.0,67.0,30.16,SSW,207,0.0,0.0,91,0.00,,,0.00,weatherlink.com 1.10,2013-06-23 03:19:00,
2013-06-22 23:34:00,69.9,68.0,30.16,SSW,207,0.0,0.0,92,0.00,,,0.00,weatherlink.com 1.10,2013-06-23 03:34:00,
2013-06-22 23:49:00,70.0,68.0,30.16,SSW,207,0.0,0.0,92,0.00,,,0.00,weatherlink.com 1.10,2013-06-23 03:49:00,